Home > Weather > Quito > Past weeks

Flag for Ecuador Past Weather in Quito, Ecuador — Yesterday and Last 2 Weeks

Now
52 °F

Partly cloudy.


Feels Like: 51 °F
Forecast: 51 / 79 °F
Wind: 3 mph from East

Location: Latacunga Airport

Current Time: May 28, 2016 at 1:06:19 AM

Latest Report: May 28, 2016 at 12:00 AM


Visibility: N/A

Pressure: 30.48 "Hg (21.70 "Hg at 2826m altitude)

Humidity: 100%

Dew Point: 52 °F

Location of QuitoLocation

Past Weather in Quito — Graph

°F

Quito Temperature Yesterday

Maximum temperature yesterday: 70 °F (at 1:00 PM)
Minimum temperature yesterday: 45 °F (at 3:00 AM)
Average temperature yesterday: 56 °F

High & Low Weather Summary for the Past Weeks

 TemperatureHumidityPressure
High72 °F (May 26, 3:00 PM)100% (May 12, 11:00 PM)30.57 "Hg (May 12, 11:00 PM)
Low43 °F (May 26, 4:00 AM)49% (May 15, 4:00 PM)30.30 "Hg (May 26, 4:00 PM)
Average57 °F87%30.45 "Hg
* Reported May 12 11:00 PM — May 27 11:00 PM, Quito, Weather by CustomWeather, © 2016

Note: Actual official high and low records may vary slightly from our data, if they occured in-between our weather recording intervals... More about our weather records

Advertising

Quito Weather History for the Previous 24 Hours

Scroll right to see more
 ConditionsComfort  
Time TempWeatherWind HumidityBarometerVisibility
11:00 PM
Fri, May 27
46 °FPassing clouds.2 mph100%30.48 "HgN/A
10:00 PM48 °FClear.2 mph100%30.45 "Hg10 mi
9:00 PM52 °FPassing clouds.9 mph100%30.45 "HgN/A
8:00 PM55 °FPassing clouds.9 mph88%30.42 "HgN/A
7:00 PM59 °FPassing clouds.15 mph77%30.39 "HgN/A
6:00 PM64 °FPassing clouds.17 mph56%30.33 "HgN/A
5:00 PM66 °FPassing clouds.22 mph52%30.30 "HgN/A
4:00 PM70 °FPassing clouds.21 mph50%30.30 "HgN/A
3:00 PM70 °FPassing clouds.17 mph50%30.33 "HgN/A
2:00 PM70 °FScattered clouds.17 mph50%30.36 "HgN/A
1:00 PM70 °FScattered clouds.17 mph53%30.39 "HgN/A
12:00 PM68 °FScattered clouds.15 mph60%30.39 "HgN/A
11:00 AM64 °FScattered clouds.14 mph64%30.45 "HgN/A
10:00 AM59 °FPassing clouds.5 mph72%30.45 "HgN/A
9:00 AM54 °FScattered clouds.2 mph94%30.48 "HgN/A
8:00 AM50 °FFog.1 mph100%30.48 "HgN/A
7:00 AM48 °FBroken clouds.2 mph100%30.48 "Hg5 mi
6:00 AM48 °FPartly cloudy.2 mph100%30.45 "HgN/A
5:00 AM48 °FPassing clouds.2 mph100%30.45 "HgN/A
3:00 AM45 °FPassing clouds.3 mph100%30.45 "HgN/A
2:00 AM46 °FPassing clouds.2 mph100%30.45 "HgN/A
1:00 AM48 °FPassing clouds.1 mph100%30.45 "HgN/A
Weather by CustomWeather, © 2016

See weather overviewHow to use our weather pages